Location: Marsån
(66.4167°N, 22.2833°E)
Time: 08:44:48
(UTC+00:00)

Cosmos 2218 Rocket - Pass Details

Date: 24 February 2024
Orbit: 956 x 1005 km, 82.9° (Epoch: 20 April)

Event Time Altitude Azimuth Distance (km) Brightness Sun altitude
Rises 23:02:46 0° 340° (NNW) 3,656 7.9 -32.9°
Reaches altitude 10° 23:05:17 10° 342° (NNW) 2,710 7.0 -32.8°
Enters shadow 23:10:41 66° 13° (NNE) 1,053 4.2 -32.8°
